Regional Weather Roundup
Issued by NWS

Home | Current Version | Previous Version | Graphics & Text | Print | Product List | Glossary On
Versions: 1 2 3 4 5 6 7 8 9 10 11 12 13 14 15 16 17 18 19 20 21 22 23 24 25 26 27 28 29 30 31 32 33 34 35 36 37 38 39 40 41 42 43 44 45 46 47 48 49 50
000
ASUS43 KLSX 242159
RWRMO

WEATHER SUMMARY FOR MISSOURI
NATIONAL WEATHER SERVICE SPRINGFIELD MO
500 PM CDT SUN MAY 24 2015

NOTE: "FAIR" INDICATES FEW OR NO CLOUDS BELOW 12,000 FEET WITH NO
       SIGNIFICANT WEATHER AND/OR OBSTRUCTIONS TO VISIBILITY.
       CURRENT SKY AND/OR WEATHER CONDITIONS ARE NOT AVAILABLE FOR
       CHILLICOTHE AND FARMINGTON.

MOZ001>031-035>038-043-044-053-054-242300-
...NORTHERN AND WESTERN MISSOURI...

CITY           SKY/WX    TMP DP  RH WIND       PRES   REMARKS
KANSAS CTY INT LGT RAIN  69  65  86 S7        29.85F
KANSAS C DTWN  LGT RAIN  70  63  78 S8        29.84F
LEE`S SUMMIT   LGT RAIN  68  63  84 S6        29.86F
ST JOSEPH      LGT RAIN  70  62  76 SW10      29.84S
KIRKSVILLE     CLOUDY    71  68  90 S6        29.85S

$$
MOZ066>068-077>081-088>096-101>105-242300-
...SOUTHWEST MISSOURI...

CITY           SKY/WX    TMP DP  RH WIND       PRES   REMARKS
SPRINGFIELD    RAIN      67  64  90 SW8       29.90S FOG
JOPLIN         LGT RAIN  67  65  93 CALM      29.88F

$$
MOZ032>034-039>042-045>050-055>058-069>072-242300-
...CENTRAL MISSOURI...

CITY           SKY/WX    TMP DP  RH WIND       PRES   REMARKS
COLUMBIA       CLOUDY    71  67  87 S10       29.88F
JEFFERSON CITY CLOUDY    72  66  81 S5        29.87F
ROLLA          PTSUNNY   78  65  63 S18G28    29.88S
SEDALIA        CLOUDY    70  64  81 W10       29.88S
OSAGE BEACH    CLOUDY    73  64  73 SW7       29.89R

$$
MOZ051-052-059>065-242300-
...EAST CENTRAL MISSOURI...

CITY           SKY/WX    TMP DP  RH WIND       PRES   REMARKS
ST LOUIS INTL  PTSUNNY   85  64  49 S16G29    29.91F
SPIRIT OF STL  PTSUNNY   84  65  52 S14G28    29.88F
ST CHARLES     MOSUNNY   84  64  50 S24G33    29.88F

$$
MOZ072>076-082>087-097>100-106>115-242300-
...SOUTH CENTRAL AND SOUTHEAST MISSOURI...

CITY           SKY/WX    TMP DP  RH WIND       PRES   REMARKS
CAPE GIRARDEAU CLOUDY    83  66  56 S15G23    29.96F
FARMINGTON     PTSUNNY   79  64  61 S18G28    29.98S
POPLAR BLUFF   PTSUNNY   82  65  56 S16G26    29.93F
WEST PLAINS    CLOUDY    76  68  76 S9        29.92F

$$



USA.gov is the U.S. government's official web portal to all federal, state and local government web resources and services.